Погода в Северном Майами Бич

США     25°55′57″N   80°10′00″W
В апреле 2022 года жителям России запретили посещать сайт meteo.paraplan.net по решению Генеральной прокуратуры. Аудитория сайта уменьшилась в 10 раз. Владельцы сайта не видят смысла в поддержке погодного сервера в таких условиях. Сайт будет закрыт в октябре.
темп.,
°C
ветер,
м/с
пор.,
м/с
влажн.,
%
обл.,
%
осадки,
мм/ч
давл.,
гПа
погр.,
м
29 сентября, чт
чт2923:00+27ююз91373100 0.0 10051079
02:00+26юз8147781 0.0 10051028
05:00+26юз9147753 0.0 10041008
08:00+26юз8137762 0.0 10051004
11:00+28зюз91367100 0.1 10071320
14:00+29зюз9136172 0.2 10051287
17:00+30зюз81054100 0.0 10041268
20:00+27зсз6764100 0.1 1006941
30 сентября, пт
пт3023:00+25з55705 0.0 1006629
02:00+24зсз45735 0.0 1006423
05:00+23зсз45760 0.0 1006431
08:00+22зсз45740 0.0 1007409
11:00+26зсз33560 0.0 1008838
14:00+30сз334610 0.0 10071490
17:00+30ссз234768 0.0 10061708
20:00+28с225615 0.0 1007826
1 октября, сб
сб123:00+27св22598 0.0 1008853
02:00+26ссз22634 0.0 1008670
05:00+25ссз32693 0.0 1009398
08:00+24ссз33720 0.0 1010311
11:00+27ссз32574 0.0 1011931
14:00+31св02431 0.0 10101824
17:00+31вюв334410 0.0 10091581
20:00+28в335976 0.1 1011842
2 октября, вс
вс223:00+27вюв33657 0.8 1012595
02:00+27ююв33670 0.9 1012571
05:00+26зсз01670 0.0 1012548
08:00+26ссз33660 0.0 1013349
11:00+29ссз22510 0.0 10141062
14:00+32зюз033846 0.0 10132157
17:00+30св1246100 0.1 10121277
20:00+29вюв2250100 0.3 10131181
3 октября, пн
пн323:00+28ссз345515 0.2 1014805
02:00+26зсз4556100 0.2 1014392
05:00+25сз4564100 0.0 1014341
08:00+25сз34635 0.0 1015285
11:00+28сз34452 0.0 1016966
14:00+32зсз443323 0.0 10141867
17:00+32ссв1433100 0.0 10132407
20:00+29в4447100 0.0 10141065